Location: Ahausen
(50.4985°N, 8.2722°E)
Time: 07:46:32
(UTC+00:00)

YUBILEINY - Pass Details

Date: 03 July 2022
Orbit: 1478 x 1509 km, 82.5° (Epoch: 07 August)

Event Time Altitude Azimuth Distance (km) Brightness Sun altitude
Rises 02:13:51 0° 349° (N) 4,656 ? -8.2°
Reaches altitude 10° 02:17:03 10° 357° (N) 3,669 ? -7.9°
Maximum altitude 02:25:15 40° 65° (ENE) 2,079 ? -7.1°
Drops below altitude 10° 02:33:20 10° 133° (SE) 3,630 ? -6.3°
Sets 02:36:27 0° 141° (SE) 4,602 ? -5.9°
